Find Starlink 35832

NORAD ID: 66495 Int'l Des: 2025-263 Owner: SPXS Country: US Constellation: starlink operational
LEOCIRCULAR

現在のビュー

3D地球を読み込み中...

About Starlink 35832

Starlink 35832 (NORAD 66495) is a starlink constellation satellite (v2 mini) launched Nov 15, 2025 by SPXS of US. It operates in LEO, CIRCULAR orbit with a mass of 575.00 kg.

次回通過

Passes for default location (London). Set your location on the main map for personalized predictions.

高度履歴

Loading altitude history...

軌道要素

1 66495U 25263L 26237.01799778 .00022419 00000-0 82116-3 0 9995
2 66495 43.0015 119.9719 0001236 273.4730 86.5980 15.27603031 44642
Epoch: Aug 25, 2026 • Age: 34 hours

現在のステータス

高度 482.7 km
遠地点 / 近地点 N/A
速度 7.63 km/s
衛星直下点 19.63°N, 144.41°E
打ち上げ日 Nov 15, 2025
運用期間 0.7 years
タイプ internet

技術仕様

分類 Payload
質量 575.00 kg
乾燥質量 530.00 kg
総質量 575.00 kg
長さ 0.30 m
直径 4.10 m
スパン 29.00 m
形状 Box + pan
製造者 SPXS
バスタイプ Starlink V2MO
フェーズステータス In Orbit
所有者/国 SPXS/US

Most Searched